Location: Unspecified
(41.5000°N, 0.0000°E)
Time: 21:46:49
(UTC+00:00)

deb Explorer IX - Pass Details

Date: 02 October 2020
Orbit: 537 x 1106 km, 38.8° (Epoch: 26 October)

Event Time Altitude Azimuth Distance (km) Brightness Sun altitude
Rises 18:49:44 0° 270° (W) 3,035 ? -14.0°
Reaches altitude 10° 18:52:17 10° 267° (W) 2,034 ? -14.4°
Maximum altitude 18:56:48 56° 190° (S) 700 ? -15.3°
Enters shadow 18:58:55 27° 122° (ESE) 1,111 ? -15.7°
